Back to catalog

FENGYUN 1C DEB

AliveSSO
NORAD 30856·DEBRIS·🇨🇳 China

Launched May 10, 1999 from Taiyuan Satellite Launch Center

Loading…

Next Passes (next 24 hours)

TLE

FreshSource: Space-Track

Epoch: Sep 13, 2026, 11:29 UTC

1 30856U 99025AWS 26256.47907191  .00010312  00000-0  23459-2 0  9998
2 30856  98.2036  79.3693 0077894 113.1400 276.5625 14.54227107  4992

Track FENGYUN 1C DEB in real time with AllMySat

Download on the App Store